TimeEDT,TemperatureF,Dew PointF,Humidity,Sea Level PressureIn,VisibilityMPH,Wind Direction,Wind SpeedMPH,Gust SpeedMPH,PrecipitationIn,Events,Conditions,WindDirDegrees,DateUTC
12:53 AM,75.0,72.0,90,30.13,10.0,Calm,Calm,-,N/A,,Scattered Clouds,0,2013-07-15 04:53:00
1:53 AM,75.0,72.0,90,30.12,10.0,Calm,Calm,-,N/A,,Scattered Clouds,0,2013-07-15 05:53:00
2:53 AM,73.9,71.1,91,30.12,10.0,Calm,Calm,-,N/A,,Partly Cloudy,0,2013-07-15 06:53:00
3:53 AM,73.0,70.0,90,30.11,10.0,Calm,Calm,-,N/A,,Clear,0,2013-07-15 07:53:00
4:53 AM,72.0,70.0,93,30.11,10.0,Calm,Calm,-,N/A,,Clear,0,2013-07-15 08:53:00
5:53 AM,71.1,69.1,93,30.11,10.0,Calm,Calm,-,N/A,,Scattered Clouds,0,2013-07-15 09:53:00
6:53 AM,73.0,70.0,90,30.11,10.0,Calm,Calm,-,N/A,,Scattered Clouds,0,2013-07-15 10:53:00
7:53 AM,77.0,72.0,84,30.12,10.0,NNW,4.6,-,N/A,,Mostly Cloudy,330,2013-07-15 11:53:00
8:53 AM,81.0,73.0,77,30.14,10.0,North,4.6,-,N/A,,Scattered Clouds,360,2013-07-15 12:53:00
9:53 AM,81.0,73.0,77,30.14,10.0,North,6.9,-,N/A,,Scattered Clouds,360,2013-07-15 13:53:00
10:53 AM,79.0,73.9,84,30.15,5.0,ENE,9.2,-,0.03,Rain,Light Rain,60,2013-07-15 14:53:00
11:53 AM,82.0,75.0,79,30.14,10.0,NE,8.1,-,0.05,,Mostly Cloudy,40,2013-07-15 15:53:00
12:53 PM,82.9,73.9,74,30.13,10.0,NE,8.1,-,N/A,,Mostly Cloudy,40,2013-07-15 16:53:00
1:53 PM,84.9,73.9,69,30.12,10.0,ENE,12.7,-,N/A,,Mostly Cloudy,60,2013-07-15 17:53:00
2:53 PM,82.9,73.0,72,30.11,10.0,NE,12.7,19.6,N/A,,Mostly Cloudy,50,2013-07-15 18:53:00
3:53 PM,82.9,75.0,77,30.10,10.0,ENE,15.0,-,0.02,,Mostly Cloudy,70,2013-07-15 19:53:00
4:53 PM,84.0,73.9,72,30.09,10.0,ENE,13.8,-,N/A,,Mostly Cloudy,70,2013-07-15 20:53:00
5:53 PM,82.0,73.9,76,30.08,10.0,East,9.2,-,N/A,,Mostly Cloudy,90,2013-07-15 21:53:00
6:53 PM,82.0,73.0,74,30.08,10.0,East,11.5,-,N/A,,Mostly Cloudy,90,2013-07-15 22:53:00
7:53 PM,81.0,73.9,79,30.10,10.0,East,9.2,-,N/A,,Mostly Cloudy,80,2013-07-15 23:53:00
8:53 PM,80.1,73.0,79,30.11,10.0,East,4.6,-,N/A,,Mostly Cloudy,80,2013-07-16 00:53:00
9:53 PM,80.1,73.0,79,30.14,10.0,East,5.8,-,N/A,,Scattered Clouds,90,2013-07-16 01:53:00
10:53 PM,79.0,72.0,79,30.16,10.0,East,4.6,-,N/A,,Scattered Clouds,90,2013-07-16 02:53:00
11:53 PM,78.1,73.0,84,30.16,10.0,East,3.5,-,0.00,,Scattered Clouds,90,2013-07-16 03:53:00